sat.trackr.live / text

‹ back to catalog

STARLINK-4442

NORAD 53480 · 2022-099R

PAYLOAD ACTIVE UNKNOWN

§ Identity

Operator
Country
US
Launch date
2022-08-12
Launch site
AFWTR
Launch vehicle
Mass (kg)
RCS (m²)

Purposes: comms

External: N2YO · Heavens-Above · Gunter

§ Orbital elements

Epoch: 2026-09-19T13:38:46.747968Z

Period
89.27 min
Inclination
97.6086°
Eccentricity
0.0004465
Mean motion
16.12997356 rev/d
Perigee alt
235.7 km
Apogee alt
241.6 km
Semi-major
6,616.8 km
B*
5.2031e-4
RAAN
35.5861°
Arg perigee
323.1529°
Mean anomaly
36.9448°
Rev number
22,606

§ Raw data

STARLINK-44421 53480U 22099R   26262.56859662  .00587970  19326-3  52031-3 0  99912 53480  97.6086  35.5861 0004465 323.1529  36.9448 16.12997356226069

JSON: /api/v1/satellites/53480 · /tle

For live sub-satellite position, see the globe view (requires WebGL).

§ Visibility from observer

Set your observer location to see the next 7 days of passes ≥ 10°. The values pass through the URL so the page stays shareable.

No JS? Fill the form by hand. The geolocation button needs JavaScript.